Location: Newark
(37.8333°N, 119.5000°W)
Time: 12:09:07
(UTC+00:00)

Tiros 1 despin weight - Pass Details

Date: 29 August 2019
Orbit: 595 x 642 km, 48.2° (Epoch: 15 September)

Event Time Altitude Azimuth Distance (km) Brightness Sun altitude
Exits shadow 12:08:23 22° 216° (SW) 1,366 ? -15.2°
Drops below altitude 10° 12:11:23 10° 175° (S) 1,989 ? -14.7°
Sets 12:14:06 0° 161° (SSE) 2,901 ? -14.2°
